Weather History for Fort Stockton, TX

Change the Weather History Date:

Friday, April 5, 2013

  Actual Average Record
Temperature  
Mean Temperature 69 °F -  
Max Temperature 84 °F 75 °F 93 °F (2001)
Min Temperature 54 °F 49 °F 42 °F (2009)
Cooling Degree Days 4    
Growing Degree Days 19 (Base 50)    
Moisture  
Dew Point 32 °F    
Average Humidity 31    
Maximum Humidity 51    
Minimum Humidity 10    
Precipitation  
Precipitation 0.00 in - - ()
Sea Level Pressure  
Sea Level Pressure 29.95 in    
Wind  
Wind Speed 14 mph (SSE)    
Max Wind Speed 23 mph    
Max Gust Speed 33 mph    
Visibility 10 miles    
Events      
Averages and records for this station are not official NWS values.
T = Trace of Precipitation, MM = Missing Value Source: NWS Daily Summary

Daily Weather History Graph

Daily Weather History Graph

Search for Another Location

Airport:

Trip Planner

Search our weather history database for the weather conditions in past years. The results will help you decide how hot, cold, wet, or windy it might be!

Date:

Astronomy

Apr. 05, 2013 Rise Set
Actual Time 7:35 AM CDT 8:13 PM CDT
Civil Twilight 7:10 AM CDT 8:38 PM CDT
Nautical Twilight 6:42 AM CDT 9:06 PM CDT
Astronomical Twilight 6:13 AM CDT 9:36 PM CDT
Moon 4:25 AM CDT (4/5) 3:56 PM CDT (4/5)
Length of Visible Light 13h 27m
Length of Day
12h 38m
Waning Crescent, 23% of the Moon is Illuminated
Apr 5
Waning Crescent
Apr 10
New
Apr 18
First Quarter
Apr 25
Full
May 2
Last Quarter

Hourly Weather History & Observations

Time (CDT) Temp. Dew Point Humidity Pressure Visibility Wind Dir Wind Speed Gust Speed Precip Events Conditions
12:53 AM 55.9 °F 37.9 °F 51% 30.08 in 10.0 mi South 9.2 mph - N/A   Clear
1:53 AM 55.9 °F 37.0 °F 49% 30.06 in 10.0 mi South 12.7 mph - N/A   Clear
2:53 AM 55.9 °F 36.0 °F 47% 30.05 in 10.0 mi South 9.2 mph - N/A   Clear
3:53 AM 55.0 °F 36.0 °F 49% 30.03 in 10.0 mi SSE 15.0 mph - N/A   Clear
4:53 AM 54.0 °F 34.0 °F 47% 30.04 in 10.0 mi SSW 10.4 mph - N/A   Clear
5:53 AM 55.9 °F 30.9 °F 39% 30.03 in 10.0 mi South 11.5 mph - N/A   Clear
6:53 AM 55.0 °F 30.0 °F 38% 30.03 in 10.0 mi South 8.1 mph - N/A   Clear
7:53 AM 54.0 °F 30.9 °F 41% 30.04 in 10.0 mi South 9.2 mph - N/A   Clear
8:53 AM 59.0 °F 33.1 °F 38% 30.04 in 10.0 mi SE 9.2 mph - N/A   Clear
9:53 AM 68.0 °F 32.0 °F 26% 30.04 in 10.0 mi SSE 12.7 mph - N/A   Clear
10:53 AM 75.0 °F 23.0 °F 14% 30.03 in 10.0 mi SSE 13.8 mph 23.0 mph N/A   Clear
11:53 AM 78.1 °F 21.0 °F 12% 30.01 in 10.0 mi South 20.7 mph 25.3 mph N/A   Clear
12:53 PM 81.0 °F 21.0 °F 11% 29.98 in 10.0 mi SSE 21.9 mph 29.9 mph N/A   Clear
1:53 PM 82.0 °F 23.0 °F 11% 29.94 in 10.0 mi SSE 19.6 mph 27.6 mph N/A   Clear
2:53 PM 84.0 °F 21.9 °F 10% 29.90 in 10.0 mi SSE 15.0 mph 27.6 mph N/A   Clear
3:53 PM 84.0 °F 21.0 °F 10% 29.86 in 10.0 mi South 18.4 mph 24.2 mph N/A   Clear
4:53 PM 84.0 °F 21.0 °F 10% 29.83 in 10.0 mi SSE 13.8 mph 26.5 mph N/A   Clear
5:53 PM 81.0 °F 27.0 °F 14% 29.82 in 10.0 mi SSE 23.0 mph 33.4 mph N/A   Clear
6:53 PM 77.0 °F 32.0 °F 19% 29.82 in 10.0 mi SSE 20.7 mph 31.1 mph N/A   Clear
7:53 PM 73.0 °F 37.0 °F 27% 29.83 in 10.0 mi SSE 21.9 mph 28.8 mph N/A   Clear
8:53 PM 69.1 °F 42.1 °F 38% 29.84 in 10.0 mi SSE 15.0 mph - N/A   Clear
9:53 PM 66.9 °F 44.1 °F 44% 29.84 in 10.0 mi SSE 17.3 mph 23.0 mph N/A   Clear
10:53 PM 64.9 °F 43.0 °F 45% 29.82 in 10.0 mi SSE 20.7 mph 32.2 mph N/A   Clear
11:53 PM 63.0 °F 43.0 °F 48% 29.81 in 10.0 mi SSE 21.9 mph 32.2 mph N/A   Clear